Date String (YYYY-MM-DD hh:mm:ss) UTC,Instrument flags,Ambient pressure (hPa),Sample flow (lpm),Bypass flow (lpm),Sample temperature (°C),Ambient temperature (°C),ASC tube jacket temperature (°C),LED temperature (°C),Box temperature (°C),Sample RH (%),Span deviation,Mass concentration (μg/m³),Mass concentration (μg/m³),Mass concentration (μg/m³)
DateTimeUTC,F1_M11,P_M11,Q1_M11,Q2_M11,T1_M11,T2_M11,T3_M11,T4_M11,T5_M11,U1_M11,ZSPAN_M11,X0_M11,X2_M11,X1_M11
2022-10-11 05:00:00,,0822.7,5.00,0.00,29.8,28.4,00.0,38.5,31.6,10.6,0000.0,0006.27,0003.51,0003.04
2022-10-11 05:01:00,,0822.7,5.00,0.00,29.8,28.4,00.0,38.5,31.6,10.5,0000.0,0006.46,0003.53,0003.03
2022-10-11 05:02:00,,0822.8,5.01,0.00,29.8,28.4,00.0,38.5,31.6,10.6,0000.0,0007.12,0003.54,0003.03
2022-10-11 05:03:00,,0822.7,4.99,0.00,29.8,28.4,00.0,38.5,31.6,10.7,0000.0,0006.87,0003.54,0003.01
2022-10-11 05:04:00,,0822.8,5.00,0.00,29.8,28.4,00.0,38.5,31.7,10.7,0000.0,0007.37,0003.52,0003.00
2022-10-11 05:05:00,,0822.8,5.00,0.00,29.8,28.4,00.0,38.5,31.7,10.8,0000.0,0007.51,0003.49,0003.01
2022-10-11 05:06:00,,0822.8,4.99,0.00,29.8,28.4,00.0,38.6,31.7,11.0,0000.0,0007.63,0003.50,0003.02
2022-10-11 05:07:00,,0822.8,5.00,0.00,29.8,28.4,00.0,38.6,31.7,11.1,0000.0,0007.65,0003.49,0003.02
2022-10-11 05:08:00,,0822.7,5.00,0.00,29.8,28.4,00.0,38.6,31.7,11.1,0000.0,0007.66,0003.48,0003.01
2022-10-11 05:09:00,,0822.7,5.00,0.00,29.8,28.4,00.0,38.6,31.7,11.0,0000.0,0007.66,0003.48,0003.01
2022-10-11 05:10:00,,0822.7,5.00,0.00,29.8,28.4,00.0,38.6,31.7,11.1,0000.0,0007.71,0003.48,0003.02
2022-10-11 05:11:00,,0822.7,4.99,0.00,29.8,28.5,00.0,38.6,31.7,11.0,0000.0,0007.66,0003.46,0003.01
2022-10-11 05:12:00,,0822.7,5.00,0.00,29.8,28.5,00.0,38.6,31.7,11.1,0000.0,0007.63,0003.45,0003.00
2022-10-11 05:13:00,,0822.7,5.00,0.00,29.8,28.5,00.0,38.6,31.7,10.8,0000.0,0007.61,0003.46,0002.99
2022-10-11 05:14:00,,0822.7,5.00,0.00,29.9,28.5,00.0,38.6,31.7,10.7,0000.0,0008.24,0003.48,0003.01
2022-10-11 05:15:00,,0822.7,5.00,0.00,29.9,28.5,00.0,38.6,31.7,10.6,0000.0,0007.97,0003.48,0003.00
2022-10-11 05:16:00,,0822.7,5.01,0.00,29.9,28.5,00.0,38.6,31.7,10.5,0000.0,0007.73,0003.47,0003.00
2022-10-11 05:17:00,,0822.6,5.00,0.00,29.9,28.5,00.0,38.6,31.7,10.5,0000.0,0008.00,0003.46,0002.99
2022-10-11 05:18:00,,0822.7,4.99,0.00,29.9,28.6,00.0,38.6,31.8,10.5,0000.0,0008.32,0003.44,0002.98
2022-10-11 05:19:00,,0822.7,5.01,0.00,29.9,28.6,00.0,38.6,31.7,10.4,0000.0,0008.31,0003.46,0002.99
2022-10-11 05:20:00,,0822.7,5.00,0.00,29.9,28.6,00.0,38.7,31.8,10.5,0000.0,0008.41,0003.44,0002.98
2022-10-11 05:21:00,,0822.7,5.01,0.00,29.9,28.6,00.0,38.7,31.8,10.8,0000.0,0008.47,0003.43,0002.97
2022-10-11 05:22:00,,0822.6,5.01,0.00,29.9,28.6,00.0,38.7,31.8,10.7,0000.0,0009.19,0003.44,0002.98
2022-10-11 05:23:00,,0822.6,4.99,0.00,29.9,28.6,00.0,38.7,31.8,10.8,0000.0,0009.26,0003.43,0002.98
2022-10-11 05:24:00,,0822.6,5.01,0.00,30.0,28.6,00.0,38.7,31.8,10.7,0000.0,0009.24,0003.40,0002.99
2022-10-11 05:25:00,,0822.6,5.00,0.00,29.9,28.6,00.0,38.7,31.8,10.2,0000.0,0008.50,0003.38,0002.99
2022-10-11 05:26:00,,0822.7,5.00,0.00,30.0,28.6,00.0,38.7,31.8,10.3,0000.0,0008.22,0003.36,0002.98
2022-10-11 05:27:00,,0822.6,5.01,0.00,30.0,28.6,00.0,38.7,31.8,10.4,0000.0,0008.19,0003.33,0002.96
2022-10-11 05:28:00,,0822.6,5.01,0.00,30.0,28.6,00.0,38.7,31.7,10.6,0000.0,0008.07,0003.33,0002.93
2022-10-11 05:29:00,,0822.6,4.99,0.00,30.0,28.6,00.0,38.7,31.8,10.7,0000.0,0007.86,0003.32,0002.91
2022-10-11 05:30:00,,0822.6,5.01,0.00,30.0,28.6,00.0,38.7,31.8,10.8,0000.0,0007.90,0003.32,0002.87
2022-10-11 05:31:00,,0822.6,5.00,0.00,30.0,28.6,00.0,38.7,31.8,10.6,0000.0,0007.88,0003.31,0002.84
2022-10-11 05:32:00,,0822.6,4.98,0.00,30.0,28.7,00.0,38.7,31.8,10.6,0000.0,0007.71,0003.30,0002.82
2022-10-11 05:33:00,,0822.6,5.01,0.00,30.0,28.6,00.0,38.7,31.8,10.7,0000.0,0006.84,0003.28,0002.77
2022-10-11 05:34:00,,0822.6,5.00,0.00,30.0,28.6,00.0,38.8,31.8,10.6,0000.0,0006.72,0003.27,0002.74
2022-10-11 05:35:00,,0822.6,4.99,0.00,30.0,28.6,00.0,38.8,31.8,10.6,0000.0,0006.41,0003.24,0002.71
2022-10-11 05:36:00,,0822.6,5.00,0.00,30.0,28.6,00.0,38.8,31.8,10.4,0000.0,0007.39,0003.22,0002.68
2022-10-11 05:37:00,,0822.6,5.00,0.00,30.0,28.6,00.0,38.8,31.8,10.3,0000.0,0007.71,0003.22,0002.65
2022-10-11 05:38:00,,0822.6,5.00,0.00,30.0,28.6,00.0,38.8,31.9,10.1,0000.0,0007.83,0003.25,0002.65
2022-10-11 05:39:00,,0822.6,4.99,0.00,30.0,28.6,00.0,38.8,31.8,10.1,0000.0,0007.79,0003.25,0002.64
2022-10-11 05:40:00,,0822.5,5.00,0.00,30.0,28.6,00.0,38.8,31.8,10.5,0000.0,0007.11,0003.23,0002.64
2022-10-11 05:41:00,,0822.5,5.01,0.00,30.0,28.6,00.0,38.8,31.9,10.5,0000.0,0006.99,0003.22,0002.64
2022-10-11 05:42:00,,0822.4,5.00,0.00,30.0,28.6,00.0,38.8,31.9,10.6,0000.0,0006.88,0003.21,0002.65
2022-10-11 05:43:00,,0822.4,5.00,0.00,30.0,28.6,00.0,38.8,31.8,10.3,0000.0,0006.82,0003.20,0002.65
2022-10-11 05:44:00,,0822.4,5.00,0.00,30.0,28.6,00.0,38.8,31.8,10.2,0000.0,0006.79,0003.20,0002.66
2022-10-11 05:45:00,,0822.4,4.99,0.00,30.0,28.6,00.0,38.8,31.8,10.2,0000.0,0006.68,0003.21,0002.67
2022-10-11 05:46:00,,0822.4,5.01,0.00,30.0,28.6,00.0,38.8,31.8,10.2,0000.0,0006.49,0003.25,0002.68
2022-10-11 05:47:00,,0822.4,5.01,0.00,30.0,28.6,00.0,38.8,31.8,10.1,0000.0,0005.65,0003.27,0002.69
2022-10-11 05:48:00,,0822.4,5.00,0.00,30.0,28.6,00.0,38.8,31.8,10.1,0000.0,0005.71,0003.27,0002.69
2022-10-11 05:49:00,,0822.4,5.00,0.00,30.0,28.6,00.0,38.8,31.8,10.1,0000.0,0005.57,0003.24,0002.70
2022-10-11 05:50:00,,0822.4,4.99,0.00,30.0,28.6,00.0,38.8,31.8,10.2,0000.0,0005.61,0003.25,0002.70
2022-10-11 05:51:00,,0822.4,5.01,0.00,30.0,28.6,00.0,38.8,31.8,10.2,0000.0,0006.23,0003.26,0002.71
2022-10-11 05:52:00,,0822.4,5.00,0.00,30.0,28.5,00.0,38.8,31.8,10.1,0000.0,0006.77,0003.27,0002.72
2022-10-11 05:53:00,,0822.4,4.99,0.00,30.0,28.5,00.0,38.8,31.8,10.1,0000.0,0006.73,0003.27,0002.72
2022-10-11 05:54:00,,0822.4,5.00,0.00,30.0,28.6,00.0,38.8,31.8,10.2,0000.0,0006.70,0003.27,0002.73
2022-10-11 05:55:00,,0822.4,5.00,0.00,30.0,28.6,00.0,38.8,31.8,10.1,0000.0,0006.58,0003.26,0002.74
2022-10-11 05:56:00,,0822.3,5.00,0.00,30.0,28.6,00.0,38.8,31.8,10.2,0000.0,0006.63,0003.28,0002.75
2022-10-11 05:57:00,,0822.4,5.00,0.00,30.0,28.6,00.0,38.8,31.8,10.2,0000.0,0006.56,0003.26,0002.75
2022-10-11 05:58:00,,0822.4,5.01,0.00,30.0,28.6,00.0,38.8,31.8,10.3,0000.0,0006.55,0003.24,0002.75
2022-10-11 05:59:00,,0822.4,5.01,0.00,30.0,28.6,00.0,38.8,31.8,10.3,0000.0,0005.71,0003.24,0002.78
